SCP
0 0 0 0 -0 0 0 0 0 -0 -0 -0 -0 0 -0 0 0 0 0 0 0 0 0 0 0 -0 -0 -0 0 0 0 0 0
0 0 0 0 0 0 0 0 0 0 0 0 0 -0 0 -0 -0 -0 0 0 0 0 0 -0 0 0 0 0 -0 0 0 0 0
-0 0 -0 0 0 0 0 0 0 -0 -0 -0 -1 -1 -0 -0 -0 -0 0 1 1 0 0 0 0 0 0 0 0 -0 -0 0 -0
-0 -0 -0 0 0 0 0 0 0 -0 -0 -0 -0 -0 -0 -0 -0 -0 0 0 1 1 1 1 0 1 0 0 0 0 -0 -0 -0
-0 0 0 0 0 0 0 0 0 0 0 -0 -0 -0 -0 -1 -1 -1 -2 -1 -0 0 1 1 1 1 1 1 0 0 0 0 -0
-0 0 0 0 0 0 0 0 0 0 -0 -0 -0 -0 -0 0 -1 -1 -2 -2 -1 -1 -0 0 -0 -0 0 0 1 0 0 0 0
0 0 0 0 0 0 0 0 0 0 0 -0 -0 -0 -0 -0 -0 -1 -1 -1 -1 -1 -1 -1 -1 -1 -0 -1 -0 0 0 0 0
0 0 0 0 0 0 0 0 1 1 0 0 0 -0 -1 -1 -1 0 -0 -1 -1 -1 -1 -0 -1 -1 -2 -1 -1 -1 -1 -0 -0
0 0 0 0 0 0 0 0 1 1 1 0 1 -0 -1 -1 -1 -0 -0 -0 0 0 -1 -1 -1 -3 -3 -3 -2 -1 -1 -1 -0
0 0 0 0 0 0 0 0 0 1 1 1 0 0 0 -0 -0 -1 -0 0 1 0 -1 0 -1 -1 -2 -3 -3 -1 -0 -0 0
0 0 0 0 0 0 0 0 0 1 0 1 1 1 1 0 0 -0 -0 -0 0 1 2 1 1 1 0 -0 -0 1 0 0 1
0 0 0 0 0 0 0 0 0 0 1 1 1 1 2 1 2 2 2 0 1 2 3 2 1 2 2 2 2 2 1 0 2
0 0 0 0 0 0 0 0 0 0 0 1 2 2 3 3 3 3 2 1 1 3 3 3 3 3 2 2 3 4 1 1 6
0 0 0 0 0 0 0 0 0 1 1 1 2 2 3 4 3 4 3 2 3 2 2 2 2 2 3 3 4 6 0 0 6
0 0 0 0 0 0 0 0 1 2 2 1 5 4 4 4 4 3 2 3 3 3 3 3 3 4 4 5 7 6 1 2 1
0 0 0 0 0 1 1 1 2 2 2 3 3 3 3 4 4 4 3 3 4 3 3 2 4 4 4 5 6 6 2 2 1
0 0 1 0 1 1 1 1 2 2 2 3 3 4 4 4 5 5 4 4 3 3 3 3 2 3 2 3 4 4 6 5 1
0 0 2 1 1 1 1 2 2 2 2 2 2 2 2 4 4 4 5 6 5 4 6 3 3 2 3 3 3 3 5 4 6
-0 0 2 3 3 3 3 2 4 5 2 2 2 2 2 2 3 4 4 4 2 0 0 0 0 0 1 7 1 0 4 7 5
0 -0 0 0 1 1 0 -1 2 6 7 3 4 4 4 3 3 3 4 5 4 4 0 0 0 0 0 0 0 0 0 0 0
Wind_Speed_500mb
59 60 69 72 74 77 78 82 85 83 82 84 83 82 80 73 76 64 61 58 45 42 39 35 35 40 35 44 40 38 38 31 27
63 65 67 72 76 78 77 82 89 92 87 88 89 89 86 84 79 78 69 63 61 50 44 39 39 40 38 41 43 41 39 35 37
59 65 65 72 76 78 79 81 92 96 97 94 94 91 92 91 89 85 83 72 70 58 58 52 38 48 42 41 46 47 46 40 39
58 60 68 72 71 78 82 81 79 90 96 102 95 94 94 95 94 91 86 87 85 74 66 61 58 48 50 50 50 52 53 49 41
67 61 65 65 71 67 73 78 78 82 87 90 100 95 94 98 96 93 93 92 91 87 81 76 74 63 67 59 56 57 58 57 50
55 56 56 60 62 66 68 74 81 82 83 84 81 85 86 93 98 98 98 94 90 88 83 81 78 76 75 75 67 64 67 66 64
45 43 44 46 57 65 65 64 73 81 81 78 78 78 81 85 95 98 96 94 93 90 88 85 85 83 80 79 74 71 73 76 76
11 12 11 18 27 30 34 52 63 73 80 77 77 83 85 91 92 93 92 93 91 90 92 92 88 85 86 85 83 76 79 82 85
12 12 23 20 27 36 41 54 58 63 73 82 76 81 92 88 87 88 94 94 95 93 92 95 95 94 89 89 88 80 80 79 84
12 16 17 22 25 25 34 38 48 55 62 67 78 86 79 88 89 93 92 92 95 101 104 97 100 96 92 93 95 98 92 84 83
27 27 25 23 26 30 28 33 40 43 42 57 71 79 91 82 89 88 90 90 93 88 84 91 91 92 94 95 98 96 95 94 89
30 35 36 31 33 37 35 33 37 39 35 45 57 73 86 92 81 87 89 91 82 77 78 78 82 87 89 96 99 95 95 93 91
23 20 22 23 26 39 37 33 41 40 39 50 63 67 70 74 78 82 88 85 83 79 78 78 70 78 89 94 97 95 93 86 79
25 29 33 35 33 29 32 38 46 45 49 56 60 53 56 66 74 78 80 77 75 73 73 64 71 74 81 84 87 90 96 93 86
34 37 39 38 40 43 41 39 41 52 60 59 62 58 58 62 68 69 64 74 70 69 67 68 73 73 73 69 80 85 97 90 111
41 42 42 38 39 40 34 32 35 44 54 49 58 58 64 64 64 64 64 65 68 60 61 57 56 57 59 58 58 76 90 99 106
45 46 46 39 33 32 30 27 31 42 40 42 51 58 59 57 60 61 64 50 48 49 49 52 54 50 53 50 51 55 55 63 80
49 52 49 30 28 30 26 26 24 25 28 34 40 43 41 46 44 47 45 46 47 43 43 52 45 44 41 41 45 45 59 64 63
48 50 34 33 29 21 27 34 26 18 22 29 34 35 36 37 38 39 41 49 51 54 53 54 50 45 45 39 43 48 47 47 42
51 39 40 35 27 25 21 10 26 29 22 27 31 32 35 35 36 33 38 37 34 40 52 44 50 56 60 59 60 66 65 65 73
Wind_Direction_500mb
198 193 198 197 198 196 196 197 200 202 207 217 220 218 221 222 221 218 217 215 213 220 219 226 225 234 232 219 231 211 224 225 226
198 190 197 196 198 200 198 197 200 203 205 214 222 221 222 225 225 222 217 216 223 214 222 221 224 221 226 213 211 220 219 222 237
216 186 193 199 199 200 201 202 202 204 207 212 224 222 224 226 228 228 225 221 220 221 218 221 218 227 221 216 217 215 222 225 222
213 207 190 198 201 201 203 204 205 207 208 211 215 225 224 226 229 231 231 228 231 229 229 220 220 220 230 222 218 219 224 221 221
209 203 195 197 198 201 203 206 208 209 211 213 216 223 224 227 231 233 234 234 230 234 234 236 236 229 229 233 224 222 227 230 220
205 202 198 194 197 198 206 206 208 210 212 216 217 218 220 222 228 230 233 235 234 232 234 236 238 239 234 237 236 230 231 235 233
194 199 199 202 200 198 202 207 207 210 215 217 218 218 219 221 224 229 232 233 236 235 234 235 236 238 238 238 239 239 238 238 237
126 152 209 227 239 236 209 202 207 211 216 216 216 217 219 222 227 228 226 229 232 235 235 237 237 241 241 239 240 237 239 239 242
171 200 181 195 216 222 226 218 210 214 216 216 216 217 217 220 222 226 228 228 230 231 234 235 236 239 240 240 238 234 237 242 241
240 227 233 246 243 224 224 215 216 217 216 217 216 220 219 218 220 225 228 228 228 233 233 233 236 238 240 240 241 241 239 241 243
261 259 261 260 246 226 218 219 213 216 215 220 220 220 221 220 219 221 226 229 229 227 226 230 233 235 239 241 243 243 242 241 244
269 277 277 270 248 234 234 229 211 215 217 220 225 227 225 222 218 218 223 230 224 225 228 229 231 235 237 242 242 238 241 238 237
291 305 297 318 278 256 255 248 242 236 230 226 229 246 229 224 217 219 223 226 230 232 234 235 229 232 237 240 240 238 235 232 233
320 310 297 287 285 281 268 256 251 252 235 229 252 229 225 223 219 218 225 228 229 230 230 221 230 228 235 236 235 236 236 230 235
314 311 305 287 277 274 270 266 250 239 236 234 237 228 221 220 219 217 218 220 224 223 224 226 225 232 229 235 233 234 237 236 230
310 313 311 296 279 277 271 260 239 235 238 230 229 226 217 213 214 216 206 221 215 216 222 220 228 229 234 232 235 241 242 245 244
307 309 307 297 278 274 270 259 250 248 235 225 224 219 212 205 206 210 204 212 211 211 216 222 222 225 228 233 234 238 244 250 256
302 304 304 290 281 271 265 257 258 249 232 216 209 208 204 202 202 202 201 197 204 209 213 219 224 226 229 232 237 241 246 247 249
298 297 287 288 285 264 241 244 224 208 212 198 194 195 194 197 192 194 191 204 207 203 212 217 221 222 222 225 240 246 250 249 249
299 281 278 277 260 258 259 272 214 193 174 187 185 184 186 186 186 188 189 194 203 210 215 221 222 233 241 244 255 262 266 265 265
Wind_Speed_850mb
59 60 69 72 74 77 78 82 85 83 82 84 83 82 80 73 76 64 61 58 45 42 39 35 35 40 35 44 40 38 38 31 27
63 65 67 72 76 78 77 82 89 92 87 88 89 89 86 84 79 78 69 63 61 50 44 39 39 40 38 41 43 41 39 35 37
59 65 65 72 76 78 79 81 92 96 97 94 94 91 92 91 89 85 83 72 70 58 58 52 38 48 42 41 46 47 46 40 39
58 60 68 72 71 78 82 81 79 90 96 102 95 94 94 95 94 91 86 87 85 74 66 61 58 48 50 50 50 52 53 49 41
67 61 65 65 71 67 73 78 78 82 87 90 100 95 94 98 96 93 93 92 91 87 81 76 74 63 67 59 56 57 58 57 50
55 56 56 60 62 66 68 74 81 82 83 84 81 85 86 93 98 98 98 94 90 88 83 81 78 76 75 75 67 64 67 66 64
45 43 44 46 57 65 65 64 73 81 81 78 78 78 81 85 95 98 96 94 93 90 88 85 85 83 80 79 74 71 73 76 76
11 12 11 18 27 30 34 52 63 73 80 77 77 83 85 91 92 93 92 93 91 90 92 92 88 85 86 85 83 76 79 82 85
12 12 23 20 27 36 41 54 58 63 73 82 76 81 92 88 87 88 94 94 95 93 92 95 95 94 89 89 88 80 80 79 84
12 16 17 22 25 25 34 38 48 55 62 67 78 86 79 88 89 93 92 92 95 101 104 97 100 96 92 93 95 98 92 84 83
27 27 25 23 26 30 28 33 40 43 42 57 71 79 91 82 89 88 90 90 93 88 84 91 91 92 94 95 98 96 95 94 89
30 35 36 31 33 37 35 33 37 39 35 45 57 73 86 92 81 87 89 91 82 77 78 78 82 87 89 96 99 95 95 93 91
23 20 22 23 26 39 37 33 41 40 39 50 63 67 70 74 78 82 88 85 83 79 78 78 70 78 89 94 97 95 93 86 79
25 29 33 35 33 29 32 38 46 45 49 56 60 53 56 66 74 78 80 77 75 73 73 64 71 74 81 84 87 90 96 93 86
34 37 39 38 40 43 41 39 41 52 60 59 62 58 58 62 68 69 64 74 70 69 67 68 73 73 73 69 80 85 97 90 111
41 42 42 38 39 40 34 32 35 44 54 49 58 58 64 64 64 64 64 65 68 60 61 57 56 57 59 58 58 76 90 99 106
45 46 46 39 33 32 30 27 31 42 40 42 51 58 59 57 60 61 64 50 48 49 49 52 54 50 53 50 51 55 55 63 80
49 52 49 30 28 30 26 26 24 25 28 34 40 43 41 46 44 47 45 46 47 43 43 52 45 44 41 41 45 45 59 64 63
48 50 34 33 29 21 27 34 26 18 22 29 34 35 36 37 38 39 41 49 51 54 53 54 50 45 45 39 43 48 47 47 42
51 39 40 35 27 25 21 10 26 29 22 27 31 32 35 35 36 33 38 37 34 40 52 44 50 56 60 59 60 66 65 65 73
Wind_Direction_850mb
198 193 198 197 198 196 196 197 200 202 207 217 220 218 221 222 221 218 217 215 213 220 219 226 225 234 232 219 231 211 224 225 226
198 190 197 196 198 200 198 197 200 203 205 214 222 221 222 225 225 222 217 216 223 214 222 221 224 221 226 213 211 220 219 222 237
216 186 193 199 199 200 201 202 202 204 207 212 224 222 224 226 228 228 225 221 220 221 218 221 218 227 221 216 217 215 222 225 222
213 207 190 198 201 201 203 204 205 207 208 211 215 225 224 226 229 231 231 228 231 229 229 220 220 220 230 222 218 219 224 221 221
209 203 195 197 198 201 203 206 208 209 211 213 216 223 224 227 231 233 234 234 230 234 234 236 236 229 229 233 224 222 227 230 220
205 202 198 194 197 198 206 206 208 210 212 216 217 218 220 222 228 230 233 235 234 232 234 236 238 239 234 237 236 230 231 235 233
194 199 199 202 200 198 202 207 207 210 215 217 218 218 219 221 224 229 232 233 236 235 234 235 236 238 238 238 239 239 238 238 237
126 152 209 227 239 236 209 202 207 211 216 216 216 217 219 222 227 228 226 229 232 235 235 237 237 241 241 239 240 237 239 239 242
171 200 181 195 216 222 226 218 210 214 216 216 216 217 217 220 222 226 228 228 230 231 234 235 236 239 240 240 238 234 237 242 241
240 227 233 246 243 224 224 215 216 217 216 217 216 220 219 218 220 225 228 228 228 233 233 233 236 238 240 240 241 241 239 241 243
261 259 261 260 246 226 218 219 213 216 215 220 220 220 221 220 219 221 226 229 229 227 226 230 233 235 239 241 243 243 242 241 244
269 277 277 270 248 234 234 229 211 215 217 220 225 227 225 222 218 218 223 230 224 225 228 229 231 235 237 242 242 238 241 238 237
291 305 297 318 278 256 255 248 242 236 230 226 229 246 229 224 217 219 223 226 230 232 234 235 229 232 237 240 240 238 235 232 233
320 310 297 287 285 281 268 256 251 252 235 229 252 229 225 223 219 218 225 228 229 230 230 221 230 228 235 236 235 236 236 230 235
314 311 305 287 277 274 270 266 250 239 236 234 237 228 221 220 219 217 218 220 224 223 224 226 225 232 229 235 233 234 237 236 230
310 313 311 296 279 277 271 260 239 235 238 230 229 226 217 213 214 216 206 221 215 216 222 220 228 229 234 232 235 241 242 245 244
307 309 307 297 278 274 270 259 250 248 235 225 224 219 212 205 206 210 204 212 211 211 216 222 222 225 228 233 234 238 244 250 256
302 304 304 290 281 271 265 257 258 249 232 216 209 208 204 202 202 202 201 197 204 209 213 219 224 226 229 232 237 241 246 247 249
298 297 287 288 285 264 241 244 224 208 212 198 194 195 194 197 192 194 191 204 207 203 212 217 221 222 222 225 240 246 250 249 249
299 281 278 277 260 258 259 272 214 193 174 187 185 184 186 186 186 188 189 194 203 210 215 221 222 233 241 244 255 262 266 265 265